Walla Walla, WA
on Monday, January 7, 2013

Monday
Previous Day Next Day
Daily Summary
 ActualAverage (KPDT)Record (KPDT)
Temperature
Mean Temperature °F 34°F  
Max Temperature 52°F 40°F 68°F (1902)
Min Temperature 33°F 28°F -7°F (1937)
Degree Days
Heating Degree Days 22 31  
Month to date heating degree days 220  
Since 1 July heating degree days 2457  
Cooling Degree Days 0 0  
Month to date cooling degree days 0  
Year to date cooling degree days 0  
Moisture
Dew Point 36°F   
Average Humidity 75    
Maximum Humidity 93    
Minimum Humidity 61    
Precipitation
Precipitation 0.52 in 0.05 in 0.47 in (1942)
Month to date precipitation 0.35  
Year to date precipitation 0.35  
Snow
Snow 0.00 in 0.20 in 4.90 in (1942)
Month to date snowfall 1.1  
Year to date snowfall 1.1  
Since 1 July snowfall 8.6  
Snow Depth in   
Wind
Wind Speed 9 mph   
Max Wind Speed 25 mph   
Max Gust Speed 36 mph   
Visibility 8 miles   
Events Rain   

Key: T is trace of precipitation, MM is missing value
Source: NWS Daily Summary
Time(PST)TemperatureDew PointHumidity Pressure Visibility Wind DirectionWind SpeedGust SpeedPrecipitationEvents Conditions
12:53 AM 36.0°F 30.9°F 82% 30.07 in 10.0 miles Calm Calm - N/A   Overcast
1:53 AM 35.1°F 30.9°F 85% 30.08 in 10.0 miles NW 3.5 mph - N/A   Overcast
2:53 AM 34.0°F 30.9°F 89% 30.08 in 4.0 miles SE 6.9 mph - 0.00 in Rain Light Freezing Rain
3:12 AM 33.8°F 30.2°F 87% 30.06 in 8.0 miles Calm Calm - 0.00 in   Overcast
3:37 AM 33.8°F 30.2°F 87% 30.05 in 4.0 miles SW 4.6 mph - 0.01 in Rain Light Rain
3:53 AM 34.0°F 32.0°F 92% 30.08 in 3.0 miles Calm Calm - 0.02 in Rain Light Rain
4:05 AM 33.8°F 32.0°F 93% 30.05 in 2.5 miles South 3.5 mph - 0.02 in Rain Rain
4:16 AM 35.6°F 32.0°F 87% 30.05 in 3.0 miles South 6.9 mph - 0.03 in Rain Rain
4:53 AM 36.0°F 34.0°F 93% 30.05 in 4.0 miles South 3.5 mph - 0.10 in Rain Rain
5:53 AM 37.9°F 34.0°F 86% 30.03 in 5.0 miles SSW 10.4 mph - 0.08 in Rain Light Rain
6:53 AM 41.0°F 36.0°F 82% 29.99 in 6.0 miles South 15.0 mph - 0.07 in Rain Light Rain
7:01 AM 41.0°F 35.6°F 81% 29.96 in 7.0 miles South 16.1 mph - 0.00 in Rain Light Rain
7:53 AM 43.0°F 37.0°F 80% 29.96 in 6.0 miles South 19.6 mph 28.8 mph 0.06 in Rain Rain
8:53 AM 43.0°F 37.9°F 82% 29.98 in 4.0 miles South 18.4 mph 25.3 mph 0.11 in Rain Rain
9:07 AM 44.6°F 37.4°F 76% 29.96 in 3.0 miles South 20.7 mph - 0.03 in Rain Rain
9:53 AM 44.1°F 37.9°F 79% 29.97 in 10.0 miles South 18.4 mph - 0.08 in Rain Light Rain
10:53 AM 48.0°F 37.9°F 68% 29.97 in 10.0 miles South 17.3 mph - 0.00 in   Overcast
11:53 AM 50.0°F 39.9°F 68% 29.94 in 10.0 miles South 19.6 mph - N/A   Overcast
12:53 PM 52.0°F 39.9°F 63% 29.93 in 10.0 miles South 18.4 mph - N/A   Overcast
1:53 PM 52.0°F 39.9°F 63% 29.95 in 10.0 miles SSW 17.3 mph - N/A   Overcast
2:53 PM 52.0°F 41.0°F 66% 29.96 in 10.0 miles SSW 16.1 mph - N/A   Mostly Cloudy
3:53 PM 50.0°F 41.0°F 71% 30.00 in 10.0 miles SSW 15.0 mph 24.2 mph N/A   Partly Cloudy
4:53 PM 51.1°F 39.9°F 66% 30.01 in 10.0 miles SW 19.6 mph 29.9 mph N/A   Clear
5:53 PM 50.0°F 39.0°F 66% 30.02 in 10.0 miles SW 16.1 mph 27.6 mph N/A   Clear
6:53 PM 50.0°F 37.0°F 61% 30.03 in 10.0 miles SW 19.6 mph - N/A   Scattered Clouds
7:53 PM 50.0°F 37.0°F 61% 30.03 in 10.0 miles SW 25.3 mph 35.7 mph N/A   Scattered Clouds
8:53 PM 48.9°F 36.0°F 61% 30.05 in 10.0 miles SSW 17.3 mph - N/A   Scattered Clouds
9:53 PM 46.9°F 35.1°F 63% 30.07 in 10.0 miles South 15.0 mph - N/A   Overcast
10:53 PM 46.9°F 35.1°F 63% 30.09 in 10.0 miles SSW 16.1 mph - N/A   Mostly Cloudy
11:53 PM 46.9°F 35.1°F 63% 30.12 in 10.0 miles SSW 13.8 mph - N/A   Overcast
Moon Phase
Jan. 07 Jan. 11 Jan. 18 Jan. 26 Feb. 03
Sunrise:07:34 AM (PST) Moon Rise:03:00 AM (PST)1/7
Sunset:04:24 PM (PST) Moon Set:12:42 PM (PST)1/7

Copyright © 2014 The Weather Underground, Inc.